QPF
0.01 0.02 0.03 0.03 0.05 0.06 0.08 0.09 0.07 0.05 0.04 0.03 0.03 0.02 0.02 0.01 0.01 0.01 0.01 0.01 0.02 0.03 0.05 0.08 0.09 0.10 0.11 0.10 0.09 0.07 0.05 0.04 0.04 0.03 0.03 0.03 0.02 0.01 0.01 0.01 0.01 0.01 0.01
0.01 0.02 0.02 0.03 0.04 0.05 0.07 0.07 0.07 0.06 0.05 0.03 0.03 0.03 0.02 0.02 0.02 0.02 0.01 0.01 0.01 0.02 0.03 0.06 0.09 0.11 0.12 0.13 0.12 0.10 0.08 0.06 0.05 0.04 0.03 0.03 0.03 0.02 0.02 0.01 0.01 0.01 0.01
0.03 0.01 0.02 0.03 0.04 0.05 0.05 0.06 0.06 0.06 0.05 0.04 0.03 0.03 0.03 0.02 0.02 0.03 0.02 0.02 0.01 0.01 0.02 0.04 0.06 0.09 0.11 0.13 0.13 0.12 0.10 0.09 0.07 0.05 0.05 0.04 0.04 0.03 0.03 0.02 0.01 0.01 0.01
0.02 0.02 0.02 0.03 0.05 0.06 0.06 0.07 0.07 0.07 0.06 0.05 0.04 0.03 0.03 0.02 0.02 0.03 0.02 0.02 0.02 0.01 0.01 0.02 0.04 0.06 0.10 0.12 0.13 0.13 0.11 0.09 0.08 0.07 0.06 0.05 0.05 0.04 0.04 0.03 0.02 0.02 0.01
0.02 0.02 0.02 0.03 0.04 0.06 0.07 0.08 0.08 0.08 0.07 0.05 0.05 0.04 0.04 0.03 0.03 0.03 0.03 0.02 0.02 0.02 0.02 0.02 0.02 0.03 0.06 0.09 0.12 0.13 0.13 0.11 0.10 0.09 0.09 0.08 0.07 0.06 0.05 0.05 0.04 0.03 0.02
0.03 0.03 0.02 0.03 0.04 0.05 0.07 0.08 0.09 0.10 0.09 0.08 0.06 0.05 0.05 0.04 0.03 0.02 0.02 0.02 0.02 0.02 0.02 0.02 0.02 0.02 0.03 0.06 0.09 0.12 0.14 0.15 0.14 0.13 0.12 0.11 0.11 0.10 0.09 0.08 0.07 0.06 0.04
0.03 0.02 0.02 0.03 0.04 0.04 0.05 0.08 0.09 0.11 0.12 0.12 0.10 0.08 0.07 0.05 0.05 0.04 0.02 0.02 0.02 0.02 0.02 0.02 0.02 0.02 0.02 0.03 0.06 0.09 0.12 0.16 0.18 0.18 0.16 0.14 0.13 0.13 0.13 0.12 0.12 0.10 0.08
0.03 0.02 0.02 0.03 0.05 0.05 0.06 0.06 0.09 0.12 0.15 0.14 0.11 0.10 0.10 0.08 0.06 0.04 0.03 0.02 0.02 0.02 0.02 0.02 0.02 0.02 0.02 0.02 0.03 0.06 0.09 0.14 0.18 0.21 0.23 0.23 0.21 0.17 0.15 0.14 0.14 0.14 0.13
0.04 0.04 0.04 0.03 0.05 0.07 0.07 0.06 0.07 0.10 0.14 0.15 0.12 0.10 0.10 0.08 0.05 0.03 0.03 0.03 0.02 0.02 0.02 0.02 0.03 0.02 0.02 0.03 0.03 0.04 0.06 0.10 0.16 0.21 0.25 0.29 0.31 0.27 0.22 0.18 0.17 0.17 0.15
0.03 0.04 0.06 0.05 0.06 0.08 0.08 0.07 0.07 0.08 0.12 0.15 0.13 0.10 0.08 0.07 0.05 0.04 0.03 0.03 0.03 0.03 0.03 0.03 0.03 0.03 0.03 0.03 0.04 0.04 0.05 0.07 0.11 0.16 0.19 0.23 0.28 0.32 0.35 0.33 0.28 0.23 0.21
0.04 0.04 0.07 0.07 0.06 0.07 0.07 0.07 0.08 0.09 0.10 0.14 0.13 0.10 0.08 0.05 0.05 0.05 0.04 0.04 0.04 0.04 0.04 0.04 0.04 0.05 0.04 0.04 0.04 0.05 0.06 0.06 0.09 0.13 0.15 0.19 0.22 0.26 0.33 0.37 0.35 0.30 0.24
0.06 0.05 0.08 0.08 0.06 0.06 0.07 0.07 0.09 0.11 0.10 0.12 0.13 0.11 0.10 0.08 0.06 0.06 0.06 0.05 0.04 0.04 0.04 0.06 0.07 0.07 0.07 0.07 0.06 0.06 0.05 0.05 0.06 0.10 0.14 0.15 0.19 0.22 0.24 0.27 0.30 0.30 0.26
0.06 0.06 0.07 0.07 0.06 0.06 0.07 0.08 0.09 0.10 0.11 0.12 0.13 0.14 0.11 0.09 0.07 0.07 0.06 0.05 0.05 0.04 0.04 0.05 0.06 0.08 0.09 0.09 0.08 0.07 0.05 0.05 0.06 0.07 0.11 0.15 0.16 0.20 0.22 0.22 0.23 0.28 0.28
0.04 0.04 0.05 0.06 0.06 0.06 0.07 0.08 0.10 0.10 0.12 0.14 0.15 0.16 0.14 0.12 0.09 0.08 0.07 0.06 0.05 0.04 0.04 0.04 0.05 0.07 0.09 0.10 0.11 0.10 0.07 0.07 0.06 0.06 0.06 0.11 0.15 0.17 0.20 0.19 0.20 0.22 0.23
0.04 0.04 0.03 0.04 0.05 0.05 0.05 0.07 0.08 0.11 0.14 0.15 0.16 0.18 0.17 0.14 0.12 0.11 0.09 0.07 0.08 0.08 0.06 0.05 0.05 0.06 0.08 0.10 0.11 0.11 0.10 0.10 0.09 0.07 0.07 0.08 0.13 0.16 0.17 0.16 0.16 0.19 0.22
0.04 0.04 0.04 0.04 0.05 0.06 0.07 0.08 0.08 0.08 0.12 0.15 0.15 0.16 0.18 0.16 0.13 0.11 0.09 0.09 0.09 0.10 0.09 0.07 0.06 0.08 0.09 0.09 0.10 0.10 0.11 0.12 0.10 0.09 0.08 0.09 0.10 0.13 0.16 0.14 0.11 0.12 0.16
0.04 0.04 0.04 0.05 0.06 0.07 0.08 0.11 0.11 0.08 0.10 0.13 0.13 0.12 0.13 0.12 0.12 0.09 0.08 0.07 0.07 0.08 0.08 0.06 0.05 0.06 0.09 0.10 0.09 0.09 0.09 0.09 0.09 0.09 0.09 0.11 0.11 0.09 0.11 0.12 0.12 0.11 0.11
0.04 0.04 0.04 0.05 0.06 0.06 0.08 0.11 0.12 0.10 0.09 0.11 0.10 0.08 0.09 0.09 0.09 0.07 0.05 0.05 0.05 0.05 0.06 0.06 0.04 0.04 0.05 0.07 0.08 0.08 0.09 0.08 0.08 0.09 0.10 0.10 0.12 0.10 0.09 0.10 0.11 0.12 0.11
0.07 0.06 0.06 0.05 0.05 0.05 0.07 0.10 0.11 0.10 0.09 0.09 0.07 0.05 0.06 0.07 0.07 0.05 0.04 0.04 0.04 0.03 0.04 0.04 0.04 0.04 0.05 0.07 0.08 0.08 0.08 0.09 0.10 0.10 0.12 0.12 0.12 0.11 0.12 0.12 0.13 0.13 0.12
0.07 0.06 0.06 0.07 0.07 0.07 0.08 0.09 0.10 0.09 0.07 0.07 0.05 0.04 0.04 0.05 0.05 0.05 0.04 0.03 0.03 0.03 0.04 0.04 0.05 0.06 0.08 0.09 0.07 0.08 0.08 0.09 0.11 0.11 0.12 0.14 0.15 0.12 0.13 0.12 0.12 0.13 0.13
0.07 0.05 0.04 0.05 0.08 0.08 0.09 0.09 0.10 0.07 0.06 0.06 0.06 0.06 0.05 0.05 0.05 0.04 0.03 0.03 0.03 0.04 0.04 0.04 0.05 0.07 0.09 0.10 0.09 0.08 0.08 0.10 0.11 0.10 0.09 0.13 0.14 0.13 0.14 0.13 0.13 0.12 0.12
0.06 0.05 0.04 0.04 0.06 0.07 0.08 0.08 0.09 0.06 0.05 0.05 0.05 0.05 0.05 0.06 0.05 0.04 0.04 0.03 0.03 0.04 0.04 0.05 0.07 0.08 0.09 0.09 0.09 0.08 0.08 0.08 0.10 0.09 0.08 0.11 0.13 0.13 0.12 0.12 0.13 0.13 0.12
0.06 0.06 0.05 0.04 0.04 0.06 0.06 0.06 0.06 0.04 0.04 0.04 0.04 0.04 0.04 0.04 0.03 0.02 0.03 0.03 0.03 0.04 0.04 0.05 0.07 0.08 0.09 0.08 0.07 0.07 0.07 0.07 0.08 0.08 0.08 0.11 0.11 0.12 0.12 0.12 0.12 0.12 0.11
0.06 0.06 0.05 0.05 0.04 0.06 0.06 0.05 0.05 0.03 0.03 0.03 0.03 0.03 0.03 0.02 0.01 0.01 0.02 0.03 0.04 0.04 0.05 0.06 0.07 0.08 0.08 0.08 0.07 0.07 0.07 0.08 0.07 0.08 0.08 0.10 0.10 0.11 0.11 0.12 0.12 0.11 0.09
0.06 0.06 0.05 0.05 0.05 0.05 0.05 0.05 0.04 0.03 0.03 0.03 0.02 0.02 0.01 0.01 0.02 0.02 0.03 0.03 0.04 0.04 0.05 0.07 0.08 0.07 0.07 0.08 0.07 0.07 0.07 0.08 0.08 0.07 0.07 0.07 0.09 0.10 0.12 0.13 0.14 0.12 0.09
0.06 0.06 0.04 0.04 0.04 0.03 0.04 0.04 0.04 0.02 0.02 0.02 0.01 0.02 0.02 0.02 0.03 0.03 0.04 0.04 0.04 0.03 0.04 0.05 0.06 0.05 0.05 0.04 0.05 0.06 0.06 0.07 0.07 0.06 0.05 0.06 0.08 0.10 0.12 0.12 0.11 0.10 0.08
MSLP
1017.90 1017.81 1017.68 1017.51 1017.32 1017.12 1016.92 1016.70 1016.45 1016.16 1015.82 1015.43 1015.00 1014.55 1014.11 1013.69 1013.28 1012.90 1012.52 1012.11 1011.65 1011.12 1010.53 1009.89 1009.21 1008.52 1007.86 1007.23 1006.67 1006.15 1005.68 1005.25 1004.86 1004.50 1004.19 1003.96 1003.82 1003.80 1003.91 1004.16 1004.55 1005.05 1005.64
1018.03 1017.93 1017.79 1017.62 1017.43 1017.23 1017.01 1016.76 1016.48 1016.15 1015.77 1015.33 1014.85 1014.36 1013.87 1013.41 1012.98 1012.57 1012.18 1011.78 1011.35 1010.86 1010.31 1009.71 1009.06 1008.39 1007.73 1007.08 1006.47 1005.89 1005.34 1004.83 1004.34 1003.89 1003.49 1003.17 1002.96 1002.86 1002.91 1003.11 1003.45 1003.93 1004.51
1018.14 1018.04 1017.90 1017.73 1017.54 1017.33 1017.09 1016.83 1016.52 1016.15 1015.72 1015.23 1014.70 1014.16 1013.62 1013.11 1012.63 1012.20 1011.79 1011.39 1010.97 1010.51 1010.00 1009.44 1008.83 1008.20 1007.54 1006.89 1006.24 1005.60 1004.97 1004.36 1003.78 1003.23 1002.74 1002.33 1002.03 1001.86 1001.85 1001.99 1002.30 1002.74 1003.31
1018.26 1018.16 1018.02 1017.86 1017.67 1017.46 1017.22 1016.93 1016.59 1016.18 1015.70 1015.17 1014.58 1013.98 1013.38 1012.80 1012.27 1011.79 1011.34 1010.91 1010.48 1010.03 1009.55 1009.03 1008.46 1007.86 1007.22 1006.56 1005.88 1005.18 1004.48 1003.78 1003.10 1002.46 1001.87 1001.38 1001.00 1000.76 1000.69 1000.78 1001.04 1001.45 1002.00
1018.38 1018.29 1018.16 1018.01 1017.83 1017.63 1017.38 1017.08 1016.71 1016.27 1015.74 1015.16 1014.51 1013.85 1013.17 1012.53 1011.92 1011.35 1010.84 1010.35 1009.89 1009.43 1008.95 1008.44 1007.90 1007.31 1006.68 1006.01 1005.30 1004.56 1003.80 1003.02 1002.26 1001.53 1000.86 1000.30 999.85 999.55 999.42 999.46 999.67 1000.04 1000.55
1018.51 1018.42 1018.31 1018.18 1018.01 1017.81 1017.57 1017.25 1016.87 1016.39 1015.83 1015.20 1014.50 1013.77 1013.02 1012.29 1011.58 1010.92 1010.31 1009.74 1009.20 1008.68 1008.17 1007.64 1007.09 1006.50 1005.86 1005.18 1004.45 1003.68 1002.87 1002.04 1001.23 1000.44 999.73 999.11 998.61 998.27 998.08 998.07 998.22 998.53 998.99
1018.63 1018.54 1018.44 1018.33 1018.18 1017.98 1017.74 1017.42 1017.02 1016.53 1015.94 1015.27 1014.53 1013.74 1012.92 1012.10 1011.29 1010.52 1009.79 1009.10 1008.45 1007.83 1007.23 1006.64 1006.04 1005.42 1004.76 1004.06 1003.32 1002.53 1001.71 1000.87 1000.03 999.24 998.51 997.87 997.35 996.97 996.74 996.67 996.75 996.98 997.37
1018.71 1018.63 1018.53 1018.42 1018.28 1018.09 1017.85 1017.53 1017.13 1016.63 1016.03 1015.34 1014.57 1013.74 1012.86 1011.96 1011.06 1010.16 1009.30 1008.46 1007.67 1006.91 1006.19 1005.48 1004.80 1004.11 1003.41 1002.68 1001.93 1001.15 1000.34 999.53 998.73 997.97 997.27 996.66 996.14 995.74 995.47 995.33 995.33 995.47 995.77
1018.75 1018.66 1018.55 1018.44 1018.29 1018.11 1017.86 1017.54 1017.14 1016.64 1016.04 1015.36 1014.58 1013.74 1012.83 1011.87 1010.88 1009.87 1008.86 1007.87 1006.91 1005.98 1005.08 1004.23 1003.42 1002.63 1001.86 1001.10 1000.34 999.59 998.84 998.10 997.38 996.70 996.08 995.52 995.04 994.64 994.33 994.13 994.04 994.08 994.27
1018.75 1018.63 1018.51 1018.37 1018.21 1018.01 1017.75 1017.43 1017.02 1016.53 1015.95 1015.29 1014.53 1013.70 1012.78 1011.79 1010.74 1009.64 1008.50 1007.35 1006.20 1005.08 1003.99 1002.95 1001.97 1001.05 1000.19 999.38 998.62 997.91 997.23 996.60 996.00 995.45 994.94 994.47 994.04 993.66 993.33 993.07 992.90 992.84 992.93
1018.72 1018.58 1018.42 1018.25 1018.06 1017.83 1017.54 1017.20 1016.79 1016.30 1015.74 1015.10 1014.39 1013.58 1012.69 1011.70 1010.62 1009.44 1008.20 1006.90 1005.57 1004.24 1002.94 1001.69 1000.52 999.45 998.47 997.59 996.82 996.14 995.55 995.04 994.58 994.18 993.80 993.45 993.10 992.75 992.42 992.12 991.88 991.75 991.77
1018.69 1018.51 1018.32 1018.11 1017.87 1017.59 1017.26 1016.88 1016.44 1015.95 1015.41 1014.80 1014.13 1013.37 1012.52 1011.55 1010.47 1009.25 1007.92 1006.50 1005.00 1003.48 1001.96 1000.49 999.11 997.85 996.73 995.76 994.95 994.30 993.78 993.38 993.08 992.82 992.59 992.36 992.11 991.82 991.52 991.21 990.95 990.78 990.77
1018.65 1018.46 1018.23 1017.97 1017.68 1017.33 1016.94 1016.50 1016.02 1015.51 1014.97 1014.38 1013.75 1013.05 1012.25 1011.32 1010.26 1009.03 1007.64 1006.11 1004.47 1002.76 1001.03 999.33 997.73 996.27 994.98 993.90 993.03 992.37 991.91 991.60 991.42 991.31 991.22 991.12 990.97 990.77 990.52 990.25 990.02 989.88 989.90
1018.64 1018.43 1018.18 1017.88 1017.52 1017.10 1016.63 1016.11 1015.57 1015.01 1014.45 1013.87 1013.26 1012.61 1011.86 1010.99 1009.95 1008.73 1007.31 1005.70 1003.94 1002.06 1000.13 998.21 996.38 994.71 993.24 992.02 991.06 990.36 989.91 989.66 989.58 989.58 989.62 989.65 989.62 989.53 989.38 989.21 989.06 989.01 989.14
1018.63 1018.43 1018.16 1017.82 1017.40 1016.90 1016.34 1015.74 1015.11 1014.49 1013.88 1013.29 1012.69 1012.06 1011.36 1010.53 1009.54 1008.33 1006.89 1005.23 1003.36 1001.34 999.23 997.11 995.07 993.18 991.52 990.14 989.06 988.29 987.82 987.60 987.57 987.67 987.82 987.97 988.08 988.12 988.11 988.08 988.09 988.20 988.50
1018.62 1018.43 1018.15 1017.78 1017.30 1016.73 1016.08 1015.38 1014.66 1013.96 1013.29 1012.66 1012.05 1011.43 1010.75 1009.96 1009.00 1007.81 1006.36 1004.66 1002.71 1000.58 998.32 996.02 993.78 991.70 989.86 988.31 987.11 986.25 985.73 985.51 985.52 985.68 985.93 986.20 986.45 986.65 986.82 986.98 987.19 987.52 988.03
1018.56 1018.39 1018.11 1017.71 1017.19 1016.55 1015.82 1015.03 1014.22 1013.43 1012.69 1012.01 1011.37 1010.74 1010.07 1009.29 1008.35 1007.17 1005.72 1003.99 1001.99 999.77 997.40 994.97 992.58 990.34 988.34 986.65 985.33 984.39 983.81 983.57 983.59 983.81 984.15 984.54 984.93 985.31 985.67 986.05 986.50 987.07 987.82
1018.43 1018.28 1018.00 1017.58 1017.02 1016.32 1015.53 1014.66 1013.78 1012.91 1012.10 1011.36 1010.68 1010.02 1009.33 1008.56 1007.62 1006.44 1004.99 1003.25 1001.22 998.96 996.52 994.00 991.51 989.17 987.06 985.28 983.87 982.86 982.25 981.99 982.03 982.30 982.72 983.23 983.77 984.32 984.89 985.49 986.17 986.98 987.96
1018.22 1018.07 1017.78 1017.35 1016.76 1016.03 1015.19 1014.27 1013.32 1012.39 1011.52 1010.72 1009.99 1009.29 1008.58 1007.78 1006.83 1005.65 1004.20 1002.46 1000.43 998.16 995.71 993.18 990.66 988.28 986.14 984.33 982.89 981.86 981.23 980.98 981.06 981.38 981.88 982.49 983.17 983.89 984.64 985.45 986.34 987.35 988.51
1017.92 1017.75 1017.46 1017.01 1016.40 1015.65 1014.78 1013.83 1012.85 1011.88 1010.96 1010.11 1009.33 1008.58 1007.82 1006.99 1006.01 1004.82 1003.38 1001.66 999.66 997.43 995.04 992.55 990.10 987.77 985.68 983.90 982.50 981.50 980.91 980.70 980.82 981.20 981.77 982.48 983.28 984.13 985.04 986.00 987.05 988.21 989.49
1017.54 1017.35 1017.03 1016.56 1015.95 1015.19 1014.31 1013.35 1012.36 1011.37 1010.42 1009.53 1008.70 1007.90 1007.08 1006.20 1005.19 1003.99 1002.56 1000.87 998.95 996.81 994.53 992.18 989.86 987.67 985.71 984.06 982.77 981.86 981.34 981.19 981.37 981.81 982.46 983.24 984.12 985.08 986.09 987.15 988.29 989.52 990.85
1017.11 1016.88 1016.53 1016.05 1015.43 1014.68 1013.81 1012.86 1011.87 1010.88 1009.91 1008.99 1008.11 1007.25 1006.37 1005.43 1004.38 1003.17 1001.76 1000.13 998.31 996.32 994.21 992.06 989.96 987.99 986.25 984.79 983.66 982.90 982.49 982.43 982.67 983.17 983.86 984.69 985.62 986.62 987.68 988.79 989.96 991.19 992.49
1016.65 1016.38 1016.00 1015.50 1014.88 1014.14 1013.29 1012.37 1011.40 1010.41 1009.44 1008.48 1007.56 1006.63 1005.69 1004.69 1003.60 1002.37 1000.99 999.45 997.76 995.95 994.07 992.19 990.37 988.69 987.21 986.00 985.09 984.50 984.23 984.26 984.57 985.10 985.81 986.65 987.59 988.59 989.65 990.75 991.89 993.07 994.30
1016.19 1015.87 1015.46 1014.95 1014.33 1013.60 1012.79 1011.89 1010.95 1009.98 1009.00 1008.02 1007.04 1006.06 1005.05 1003.98 1002.85 1001.61 1000.27 998.83 997.30 995.71 994.10 992.52 991.03 989.67 988.51 987.58 986.90 986.50 986.36 986.48 986.83 987.37 988.07 988.89 989.80 990.77 991.78 992.84 993.91 995.01 996.13
1015.74 1015.38 1014.94 1014.41 1013.80 1013.09 1012.30 1011.44 1010.53 1009.57 1008.59 1007.59 1006.57 1005.52 1004.44 1003.32 1002.14 1000.91 999.62 998.29 996.94 995.58 994.26 993.00 991.85 990.84 990.00 989.35 988.91 988.68 988.67 988.85 989.22 989.75 990.41 991.17 992.02 992.93 993.88 994.87 995.87 996.88 997.88
1015.28 1014.89 1014.43 1013.89 1013.28 1012.59 1011.83 1011.00 1010.12 1009.18 1008.20 1007.18 1006.12 1005.02 1003.88 1002.70 1001.50 1000.28 999.05 997.84 996.67 995.56 994.52 993.59 992.78 992.10 991.57 991.18 990.96 990.88 990.96 991.18 991.54 992.03 992.63 993.32 994.09 994.93 995.81 996.72 997.65 998.58 999.50
Thickness
5652 5652 5653 5654 5655 5656 5657 5659 5661 5662 5663 5663 5664 5665 5666 5667 5667 5668 5669 5670 5671 5672 5673 5673 5674 5674 5674 5673 5671 5670 5668 5666 5664 5662 5660 5658 5656 5653 5651 5648 5645 5643 5640
5643 5643 5644 5645 5647 5647 5648 5649 5651 5653 5654 5654 5656 5658 5658 5659 5660 5661 5662 5663 5664 5665 5665 5666 5667 5668 5668 5667 5666 5665 5663 5662 5660 5658 5656 5654 5651 5649 5647 5645 5642 5639 5636
5634 5634 5635 5636 5637 5638 5638 5639 5641 5643 5645 5645 5647 5649 5650 5651 5652 5652 5653 5654 5655 5657 5657 5658 5659 5660 5661 5661 5661 5659 5658 5657 5655 5653 5652 5649 5647 5645 5643 5641 5638 5635 5632
5626 5625 5625 5626 5627 5628 5629 5629 5631 5632 5634 5635 5637 5640 5641 5642 5643 5644 5645 5646 5646 5648 5649 5650 5651 5652 5653 5654 5654 5653 5652 5651 5650 5648 5647 5645 5643 5641 5639 5636 5634 5631 5628
5617 5616 5616 5616 5616 5618 5619 5619 5620 5621 5623 5625 5627 5629 5631 5632 5634 5635 5636 5637 5637 5639 5639 5640 5641 5643 5644 5645 5646 5646 5646 5645 5644 5643 5642 5641 5639 5636 5634 5632 5630 5627 5624
5608 5606 5606 5606 5606 5606 5607 5608 5609 5610 5611 5613 5616 5618 5620 5622 5623 5624 5626 5627 5627 5629 5630 5630 5631 5632 5634 5635 5637 5638 5638 5638 5637 5637 5636 5635 5634 5632 5630 5627 5625 5622 5619
5598 5596 5596 5595 5595 5595 5596 5597 5598 5599 5599 5600 5601 5604 5607 5611 5612 5614 5615 5615 5616 5618 5619 5620 5620 5621 5623 5624 5626 5628 5629 5629 5630 5630 5629 5629 5628 5626 5624 5622 5620 5617 5614
5588 5587 5585 5585 5584 5584 5585 5585 5586 5586 5587 5588 5588 5589 5591 5596 5600 5603 5603 5604 5605 5607 5608 5609 5609 5610 5611 5613 5615 5616 5618 5619 5621 5621 5621 5621 5620 5619 5618 5616 5614 5611 5608
5579 5576 5575 5574 5573 5573 5574 5574 5575 5576 5577 5577 5577 5577 5577 5582 5586 5590 5591 5593 5593 5594 5596 5596 5597 5597 5599 5601 5604 5605 5607 5608 5610 5612 5612 5612 5612 5611 5610 5608 5607 5604 5601
5569 5567 5565 5563 5562 5562 5563 5564 5565 5566 5566 5566 5565 5566 5568 5569 5569 5574 5578 5579 5580 5582 5583 5584 5585 5586 5588 5590 5593 5594 5596 5598 5600 5601 5602 5602 5602 5603 5601 5600 5598 5597 5594
5560 5558 5555 5553 5552 5552 5553 5554 5555 5555 5556 5556 5555 5555 5555 5555 5557 5559 5563 5566 5567 5569 5571 5572 5574 5576 5577 5579 5581 5583 5585 5587 5589 5590 5591 5591 5592 5592 5592 5591 5590 5588 5586
5552 5549 5547 5545 5543 5543 5544 5544 5545 5546 5546 5546 5545 5545 5545 5546 5547 5548 5551 5554 5556 5559 5560 5562 5564 5566 5568 5570 5571 5573 5575 5577 5578 5579 5579 5580 5580 5581 5581 5581 5580 5578 5576
5543 5542 5540 5538 5537 5536 5536 5537 5537 5537 5537 5536 5536 5535 5536 5538 5539 5541 5542 5543 5544 5548 5551 5553 5555 5556 5558 5559 5561 5563 5565 5566 5567 5567 5568 5569 5569 5570 5570 5570 5569 5567 5566
5536 5534 5533 5532 5532 5531 5531 5531 5530 5530 5529 5528 5529 5528 5528 5529 5531 5532 5533 5532 5533 5537 5541 5544 5545 5546 5547 5548 5550 5552 5553 5555 5556 5556 5557 5557 5558 5559 5559 5558 5558 5556 5556
5529 5528 5527 5526 5526 5526 5525 5524 5524 5523 5522 5521 5521 5521 5520 5521 5522 5523 5524 5525 5525 5526 5533 5535 5533 5535 5535 5537 5538 5540 5542 5543 5545 5546 5547 5547 5547 5548 5548 5548 5547 5546 5545
5523 5522 5521 5520 5520 5520 5519 5518 5517 5516 5515 5514 5514 5514 5514 5514 5514 5514 5515 5516 5517 5517 5520 5523 5522 5523 5524 5527 5528 5529 5531 5533 5534 5536 5536 5537 5537 5537 5537 5537 5536 5536 5535
5519 5517 5516 5515 5515 5514 5512 5511 5510 5509 5508 5508 5507 5507 5507 5505 5505 5506 5506 5507 5507 5507 5507 5512 5512 5513 5515 5516 5519 5520 5521 5522 5523 5525 5526 5526 5527 5527 5527 5527 5526 5526 5524
5515 5514 5512 5510 5509 5508 5507 5505 5504 5503 5502 5502 5501 5500 5499 5499 5499 5498 5498 5499 5499 5498 5498 5501 5503 5504 5505 5507 5509 5510 5512 5514 5514 5515 5516 5517 5517 5517 5517 5517 5517 5515 5514
5511 5510 5507 5506 5504 5502 5501 5499 5498 5497 5496 5495 5494 5494 5494 5493 5491 5491 5491 5491 5491 5491 5491 5492 5494 5495 5497 5497 5499 5501 5503 5503 5504 5504 5505 5506 5507 5507 5506 5507 5506 5505 5504
5507 5505 5503 5501 5498 5496 5495 5493 5492 5491 5490 5490 5489 5489 5488 5488 5487 5486 5485 5485 5484 5483 5483 5484 5485 5487 5487 5488 5488 5491 5493 5494 5494 5494 5494 5495 5496 5496 5496 5496 5496 5495 5494
5503 5500 5498 5495 5493 5491 5489 5488 5487 5486 5485 5484 5484 5483 5482 5482 5483 5482 5481 5480 5478 5477 5477 5476 5477 5478 5479 5479 5479 5480 5481 5482 5484 5483 5483 5484 5485 5485 5485 5486 5485 5486 5486
5497 5495 5493 5490 5487 5486 5485 5484 5482 5480 5479 5478 5478 5477 5476 5477 5477 5477 5476 5475 5473 5471 5469 5468 5469 5471 5471 5470 5470 5470 5469 5471 5473 5473 5472 5474 5474 5474 5475 5476 5477 5478 5478
5492 5490 5487 5484 5481 5480 5479 5478 5477 5475 5473 5472 5472 5471 5471 5470 5469 5468 5468 5467 5466 5466 5465 5464 5463 5463 5463 5463 5462 5461 5460 5460 5461 5461 5461 5464 5464 5465 5466 5467 5468 5470 5469
5486 5484 5482 5479 5477 5474 5474 5473 5471 5469 5467 5466 5464 5464 5463 5462 5461 5460 5459 5459 5458 5458 5458 5457 5457 5456 5456 5455 5454 5453 5452 5451 5451 5450 5450 5452 5453 5454 5456 5458 5459 5460 5460
5480 5478 5475 5473 5470 5468 5467 5466 5465 5462 5460 5458 5457 5456 5455 5455 5455 5455 5454 5452 5451 5450 5450 5450 5450 5450 5449 5448 5447 5446 5444 5443 5443 5442 5440 5441 5441 5442 5445 5447 5448 5448 5448
5473 5471 5468 5466 5463 5461 5460 5459 5458 5455 5453 5451 5450 5449 5449 5449 5449 5448 5446 5444 5443 5442 5441 5441 5441 5441 5440 5439 5438 5437 5436 5435 5434 5433 5432 5432 5432 5432 5434 5436 5436 5436 5436